OCN6V LGIR-EDDM

Flight info

Callsign OCN6V
Flight time 2h 50m
Altitude 38000
Route EPALO M749 DIRMI UL613 YNN UL604 DIMIS DCT RETRA DCT NIVES DCT GORPA DCT RASTA DCT REDBU Q112 NAPSA NAPSA1B
Aircraft A320/M-SDE2E3FGIJ1LORWXYZ/HB1

Departure

Time 2026-05-04 09:14
Airport Heraklion International Nikos Kazantzakis Airport (LGIR)

Arrival

Time 2026-05-04 12:04
Airport Munich Airport (EDDM)
Time Latitude Longitude Altitude Speed Heading
2026-05-04 08:40 35.33871 25.17545 91 ft 0 kts 315°
2026-05-04 09:09 35.33878 25.17537 73 ft 4 kts 318°
2026-05-04 09:09 35.33907 25.17552 104 ft 7 kts 72°
2026-05-04 09:09 35.33902 25.17632 91 ft 11 kts 96°
2026-05-04 09:09 35.33895 25.17738 94 ft 13 kts 95°
2026-05-04 09:10 35.33886 25.17850 93 ft 14 kts 95°
2026-05-04 09:10 35.33877 25.17969 92 ft 15 kts 95°
2026-05-04 09:10 35.33869 25.18100 95 ft 16 kts 94°
2026-05-04 09:10 35.33860 25.18238 93 ft 17 kts 94°
2026-05-04 09:11 35.33850 25.18397 91 ft 20 kts 94°
2026-05-04 09:11 35.33839 25.18565 93 ft 19 kts 94°
2026-05-04 09:11 35.33827 25.18732 90 ft 21 kts 95°
2026-05-04 09:11 35.33819 25.18843 90 ft 0 kts 96°
2026-05-04 09:12 35.33819 25.18844 90 ft 1 kts 96°
2026-05-04 09:12 35.33817 25.18863 90 ft 5 kts 96°
2026-05-04 09:14 35.34084 25.16438 423 ft 157 kts 281°
2026-05-04 09:14 35.34274 25.15162 1223 ft 149 kts 304°
2026-05-04 09:14 35.35053 25.14391 1969 ft 146 kts 339°
2026-05-04 09:14 35.36075 25.14206 2565 ft 155 kts
2026-05-04 09:15 35.37125 25.14627 3176 ft 163 kts 19°
2026-05-04 09:15 35.38201 25.15218 3606 ft 179 kts 14°
2026-05-04 09:15 35.39449 25.15241 3899 ft 195 kts 340°
2026-05-04 09:15 35.40765 25.14647 4540 ft 207 kts 338°
2026-05-04 09:17 35.53734 25.08906 10660 ft 276 kts 340°
2026-05-04 09:18 35.55615 25.08074 11031 ft 295 kts 339°
2026-05-04 09:18 35.57572 25.07209 11730 ft 302 kts 339°
2026-05-04 09:18 35.59567 25.06330 12474 ft 307 kts 339°
2026-05-04 09:18 35.61592 25.05439 13218 ft 312 kts 339°
2026-05-04 09:19 35.63649 25.04533 13951 ft 316 kts 339°
2026-05-04 09:19 35.65732 25.03612 14613 ft 320 kts 338°
2026-05-04 09:19 35.67836 25.02683 15318 ft 321 kts 338°
2026-05-04 09:19 35.69945 25.01748 16040 ft 323 kts 338°
2026-05-04 09:20 35.72060 25.00809 16763 ft 324 kts 338°
2026-05-04 09:20 35.74177 24.99839 17502 ft 324 kts 337°
2026-05-04 09:20 35.76258 24.98856 18220 ft 325 kts 337°
2026-05-04 09:20 35.78399 24.97834 18877 ft 326 kts 336°
2026-05-04 09:21 35.80519 24.96821 19499 ft 327 kts 336°
2026-05-04 09:21 35.82621 24.95822 20100 ft 328 kts 336°
2026-05-04 09:21 35.84756 24.94816 20707 ft 329 kts 336°
2026-05-04 09:21 35.86899 24.93808 21311 ft 330 kts 336°
2026-05-04 09:22 35.89051 24.92792 21895 ft 331 kts 335°
2026-05-04 09:22 35.91210 24.91773 22470 ft 333 kts 335°
2026-05-04 09:22 35.93380 24.90749 23041 ft 334 kts 335°
2026-05-04 09:22 35.95557 24.89722 23605 ft 335 kts 335°
2026-05-04 09:23 35.97743 24.88692 24115 ft 336 kts 335°
2026-05-04 09:23 35.99931 24.87659 24563 ft 338 kts 335°
2026-05-04 09:23 36.02136 24.86615 24985 ft 340 kts 335°
2026-05-04 09:23 36.04342 24.85555 25396 ft 341 kts 333°
2026-05-04 09:25 36.17670 24.73030 28135 ft 351 kts 320°
2026-05-04 09:25 36.19581 24.71132 28509 ft 353 kts 320°
2026-05-04 09:26 36.21503 24.69222 28882 ft 355 kts 320°
2026-05-04 09:26 36.23438 24.67298 29247 ft 357 kts 320°
2026-05-04 09:26 36.25357 24.65387 29622 ft 360 kts 320°
2026-05-04 09:26 36.27341 24.63409 29978 ft 362 kts 320°
2026-05-04 09:27 36.29285 24.61471 30297 ft 364 kts 320°
2026-05-04 09:27 36.31268 24.59495 30572 ft 366 kts 320°
2026-05-04 09:27 36.33261 24.57507 30836 ft 369 kts 320°
2026-05-04 09:27 36.35261 24.55509 31090 ft 371 kts 320°
2026-05-04 09:28 36.37280 24.53494 31343 ft 373 kts 320°
2026-05-04 09:28 36.39309 24.51465 31591 ft 375 kts 320°
2026-05-04 09:28 36.41341 24.49429 31918 ft 375 kts 320°
2026-05-04 09:28 36.43375 24.47390 32272 ft 375 kts 320°
2026-05-04 09:29 36.45408 24.45355 32616 ft 375 kts 320°
2026-05-04 09:29 36.47439 24.43321 32959 ft 374 kts 320°
2026-05-04 09:29 36.49468 24.41286 33292 ft 374 kts 320°
2026-05-04 09:29 36.51468 24.39278 33634 ft 374 kts 320°
2026-05-04 09:30 36.53492 24.37242 33987 ft 374 kts 320°
2026-05-04 09:30 36.55517 24.35206 34291 ft 374 kts 320°
2026-05-04 09:30 36.57540 24.33170 34550 ft 375 kts 320°
2026-05-04 09:30 36.59569 24.31124 34800 ft 375 kts 320°
2026-05-04 09:31 36.61598 24.29075 35038 ft 376 kts 320°
2026-05-04 09:31 36.63633 24.27022 35273 ft 377 kts 320°
2026-05-04 09:31 36.65677 24.24966 35506 ft 377 kts 320°
2026-05-04 09:31 36.67721 24.22906 35729 ft 378 kts 320°
2026-05-04 09:32 36.69764 24.20844 35955 ft 379 kts 320°
2026-05-04 09:32 36.71810 24.18776 36175 ft 379 kts 320°
2026-05-04 09:34 36.86220 24.04150 37533 ft 384 kts 320°
2026-05-04 09:34 36.88270 24.02060 37730 ft 385 kts 320°
2026-05-04 09:34 36.90341 23.99949 37912 ft 385 kts 320°
2026-05-04 09:34 36.92418 23.97834 38104 ft 385 kts 320°
2026-05-04 09:35 36.96587 23.93594 38196 ft 386 kts 320°
2026-05-04 09:35 37.00753 23.89352 38196 ft 386 kts 320°
2026-05-04 09:37 37.17411 23.72295 38194 ft 388 kts 321°
2026-05-04 09:38 37.21554 23.68042 38204 ft 387 kts 321°
2026-05-04 09:38 37.25720 23.63762 38209 ft 387 kts 321°
2026-05-04 09:39 37.29884 23.59491 38208 ft 386 kts 321°
2026-05-04 09:39 37.34035 23.55204 38208 ft 386 kts 321°
2026-05-04 09:40 37.38185 23.50915 38207 ft 386 kts 321°
2026-05-04 09:40 37.42332 23.46619 38217 ft 386 kts 321°
2026-05-04 09:42 37.58851 23.29458 38201 ft 384 kts 321°
2026-05-04 09:43 37.62967 23.25168 38200 ft 384 kts 321°
2026-05-04 09:43 37.67075 23.20867 38211 ft 384 kts 320°
2026-05-04 09:44 37.71195 23.16557 38188 ft 385 kts 320°
2026-05-04 09:46 37.87024 22.99951 38194 ft 384 kts 321°
2026-05-04 09:46 37.91136 22.95617 38197 ft 384 kts 321°
2026-05-04 09:47 37.95178 22.91263 38210 ft 384 kts 319°
2026-05-04 09:49 38.10934 22.72788 38191 ft 385 kts 319°
2026-05-04 09:51 38.24704 22.56767 38198 ft 384 kts 319°
2026-05-04 09:51 38.28644 22.52175 38180 ft 384 kts 319°
2026-05-04 09:52 38.32587 22.47566 38176 ft 385 kts 319°
2026-05-04 09:52 38.36535 22.42949 38155 ft 385 kts 319°
2026-05-04 09:53 38.40476 22.38326 38172 ft 385 kts 319°
2026-05-04 09:53 38.44391 22.33723 38179 ft 385 kts 319°
2026-05-04 09:54 38.48323 22.29089 38181 ft 385 kts 319°
2026-05-04 09:54 38.52253 22.24457 38180 ft 384 kts 319°
2026-05-04 09:55 38.56177 22.19819 38186 ft 384 kts 319°
2026-05-04 09:55 38.60104 22.15176 38180 ft 384 kts 319°
2026-05-04 09:56 38.64031 22.10530 38170 ft 384 kts 319°
2026-05-04 09:56 38.67950 22.05886 38180 ft 384 kts 319°
2026-05-04 09:57 38.71829 22.01265 38188 ft 383 kts 319°
2026-05-04 09:57 38.75729 21.96616 38178 ft 383 kts 319°
2026-05-04 09:58 38.79629 21.91978 38185 ft 383 kts 319°
2026-05-04 09:58 38.83532 21.87320 38171 ft 383 kts 319°
2026-05-04 10:00 38.99129 21.68636 38174 ft 384 kts 319°
2026-05-04 10:04 39.26318 21.35746 38178 ft 383 kts 319°
2026-05-04 10:04 39.30188 21.31033 38179 ft 382 kts 319°
2026-05-04 10:05 39.34031 21.26344 38179 ft 382 kts 319°
2026-05-04 10:05 39.37900 21.21626 38178 ft 382 kts 319°
2026-05-04 10:06 39.41770 21.16904 38163 ft 383 kts 319°
2026-05-04 10:06 39.45639 21.12164 38148 ft 384 kts 318°
2026-05-04 10:08 39.59184 20.95519 38167 ft 382 kts 318°
2026-05-04 10:08 39.63034 20.90755 38171 ft 382 kts 318°
2026-05-04 10:09 39.66861 20.86026 38185 ft 382 kts 319°
2026-05-04 10:09 39.70946 20.81648 38179 ft 380 kts 331°
2026-05-04 10:10 39.75718 20.78688 38152 ft 380 kts 335°
2026-05-04 10:10 39.80503 20.75786 38159 ft 380 kts 334°
2026-05-04 10:11 39.85296 20.72867 38160 ft 380 kts 334°
2026-05-04 10:11 39.90057 20.69968 38165 ft 380 kts 335°
2026-05-04 10:12 39.94861 20.67041 38155 ft 381 kts 334°
2026-05-04 10:12 39.99664 20.64107 38149 ft 381 kts 334°
2026-05-04 10:13 40.04473 20.61166 38149 ft 382 kts 335°
2026-05-04 10:13 40.09294 20.58248 38150 ft 382 kts 335°
2026-05-04 10:14 40.14175 20.55495 38154 ft 382 kts 336°
2026-05-04 10:16 40.33717 20.44488 38152 ft 383 kts 336°
2026-05-04 10:16 40.38606 20.41711 38162 ft 383 kts 336°
2026-05-04 10:17 40.43487 20.38919 38164 ft 383 kts 336°
2026-05-04 10:19 40.63073 20.27738 38172 ft 384 kts 336°
2026-05-04 10:19 40.67943 20.24946 38171 ft 384 kts 336°
2026-05-04 10:20 40.72846 20.22125 38168 ft 384 kts 336°
2026-05-04 10:20 40.77751 20.19291 38170 ft 384 kts 336°
2026-05-04 10:21 40.82652 20.16455 38174 ft 384 kts 336°
2026-05-04 10:21 40.87559 20.13617 38151 ft 385 kts 336°
2026-05-04 10:22 40.94883 20.09374 38166 ft 385 kts 336°
2026-05-04 10:23 40.99784 20.06525 38169 ft 384 kts 336°
2026-05-04 10:25 41.19374 19.95084 38165 ft 385 kts 336°
2026-05-04 10:25 41.24273 19.92220 38170 ft 384 kts 336°
2026-05-04 10:26 41.29168 19.89358 38177 ft 384 kts 336°
2026-05-04 10:26 41.34028 19.86505 38178 ft 384 kts 336°
2026-05-04 10:27 41.38917 19.83621 38170 ft 384 kts 336°
2026-05-04 10:27 41.43810 19.80732 38173 ft 385 kts 336°
2026-05-04 10:28 41.48706 19.77840 38158 ft 385 kts 336°
2026-05-04 10:28 41.53600 19.74944 38164 ft 385 kts 336°
2026-05-04 10:29 41.58505 19.72049 38161 ft 386 kts 336°
2026-05-04 10:29 41.63426 19.69137 38179 ft 386 kts 336°
2026-05-04 10:30 41.68336 19.66208 38181 ft 387 kts 335°
2026-05-04 10:30 41.73224 19.63292 38187 ft 387 kts 336°
2026-05-04 10:31 41.78149 19.60360 38184 ft 387 kts 336°
2026-05-04 10:32 41.95412 19.50039 38190 ft 388 kts 336°
2026-05-04 10:33 42.00353 19.47070 38178 ft 389 kts 336°
2026-05-04 10:33 42.04463 19.44599 38169 ft 389 kts 335°
2026-05-04 10:34 42.10205 19.41137 38179 ft 389 kts 335°
2026-05-04 10:34 42.14340 19.38641 38186 ft 389 kts 335°
2026-05-04 10:35 42.19243 19.35674 38176 ft 389 kts 336°
2026-05-04 10:35 42.24019 19.32245 38171 ft 390 kts 323°
2026-05-04 10:36 42.28274 19.27679 38168 ft 390 kts 323°
2026-05-04 10:36 42.32525 19.23102 38169 ft 391 kts 323°
2026-05-04 10:37 42.36781 19.18525 38170 ft 391 kts 323°
2026-05-04 10:37 42.41013 19.13977 38171 ft 391 kts 323°
2026-05-04 10:39 42.55901 18.97845 38174 ft 391 kts 322°
2026-05-04 10:40 42.60148 18.93227 38182 ft 391 kts 322°
2026-05-04 10:40 42.64403 18.88609 38174 ft 391 kts 322°
2026-05-04 10:41 42.68624 18.84013 38164 ft 392 kts 322°
2026-05-04 10:41 42.72870 18.79362 38161 ft 392 kts 322°
2026-05-04 10:42 42.77115 18.74707 38150 ft 392 kts 322°
2026-05-04 10:42 42.81363 18.70045 38156 ft 392 kts 322°
2026-05-04 10:43 42.85611 18.65384 38160 ft 392 kts 322°
2026-05-04 10:45 43.02571 18.46677 38157 ft 393 kts 322°
2026-05-04 10:45 43.06816 18.41970 38133 ft 393 kts 321°
2026-05-04 10:46 43.11059 18.37252 38137 ft 393 kts 321°
2026-05-04 10:46 43.15306 18.32512 38147 ft 394 kts 321°
2026-05-04 10:47 43.19561 18.27769 38140 ft 394 kts 321°
2026-05-04 10:47 43.23818 18.23021 38139 ft 394 kts 321°
2026-05-04 10:49 43.40799 18.03968 38138 ft 395 kts 321°
2026-05-04 10:50 43.45046 17.99179 38142 ft 395 kts 321°
2026-05-04 10:52 43.62030 17.79945 38125 ft 396 kts 321°
2026-05-04 10:52 43.66291 17.75084 38113 ft 398 kts 321°
2026-05-04 10:54 43.83400 17.55533 38135 ft 401 kts 321°
2026-05-04 10:56 44.00592 17.35710 38134 ft 402 kts 320°
2026-05-04 10:57 44.04880 17.30739 38134 ft 401 kts 320°
2026-05-04 10:57 44.09141 17.25797 38118 ft 402 kts 320°
2026-05-04 10:58 44.13436 17.20805 38116 ft 402 kts 320°
2026-05-04 10:58 44.17731 17.15808 38116 ft 403 kts 320°
2026-05-04 10:59 44.22036 17.10796 38122 ft 403 kts 320°
2026-05-04 10:59 44.26335 17.05767 38122 ft 403 kts 320°
2026-05-04 11:00 44.30634 17.00735 38120 ft 403 kts 320°
2026-05-04 11:02 44.47774 16.80533 38113 ft 403 kts 320°
2026-05-04 11:05 44.79894 16.42279 38111 ft 405 kts 320°
2026-05-04 11:06 44.84186 16.37130 38113 ft 405 kts 319°
2026-05-04 11:06 44.88470 16.31960 38112 ft 405 kts 319°
2026-05-04 11:10 45.18469 15.95550 38112 ft 407 kts 318°
2026-05-04 11:12 45.36700 15.76444 38107 ft 409 kts 324°
2026-05-04 11:12 45.41351 15.71770 38107 ft 409 kts 324°
2026-05-04 11:13 45.45999 15.67093 38098 ft 409 kts 323°
2026-05-04 11:13 45.50651 15.62400 38098 ft 410 kts 323°
2026-05-04 11:16 45.73894 15.38810 38089 ft 410 kts 323°
2026-05-04 11:16 45.78544 15.34046 38089 ft 410 kts 322°
2026-05-04 11:17 45.83092 15.29092 38090 ft 410 kts 321°
2026-05-04 11:19 46.01152 15.08994 38078 ft 412 kts 321°
2026-05-04 11:19 46.05688 15.03948 38080 ft 412 kts 321°
2026-05-04 11:20 46.10224 14.98891 38079 ft 413 kts 321°
2026-05-04 11:20 46.14741 14.93858 38080 ft 413 kts 321°
2026-05-04 11:22 46.32854 14.73529 38104 ft 410 kts 320°
2026-05-04 11:23 46.37359 14.68451 38092 ft 410 kts 320°
2026-05-04 11:25 46.52381 14.51387 38070 ft 413 kts 320°
2026-05-04 11:25 46.56908 14.46231 38070 ft 414 kts 320°
2026-05-04 11:27 46.77297 14.22883 38071 ft 416 kts 320°
2026-05-04 11:28 46.81849 14.17640 38067 ft 417 kts 320°
2026-05-04 11:28 46.86400 14.12373 38066 ft 417 kts 319°
2026-05-04 11:29 46.90951 14.07095 38066 ft 417 kts 319°
2026-05-04 11:29 46.95506 14.01811 38076 ft 418 kts 319°
2026-05-04 11:31 47.11664 13.82961 36584 ft 423 kts 319°
2026-05-04 11:33 47.27318 13.64563 33061 ft 401 kts 319°
2026-05-04 11:33 47.29480 13.62002 32573 ft 397 kts 319°
2026-05-04 11:33 47.31625 13.59462 32094 ft 394 kts 319°
2026-05-04 11:34 47.33758 13.56941 31607 ft 391 kts 320°
2026-05-04 11:34 47.35864 13.54445 31147 ft 387 kts 319°
2026-05-04 11:34 47.37926 13.51993 30698 ft 384 kts 319°
2026-05-04 11:34 47.39997 13.49531 30255 ft 380 kts 320°
2026-05-04 11:35 47.42050 13.47090 29779 ft 377 kts 319°
2026-05-04 11:35 47.44077 13.44677 29352 ft 372 kts 319°
2026-05-04 11:35 47.46079 13.42284 28924 ft 367 kts 319°
2026-05-04 11:35 47.48052 13.39925 28517 ft 363 kts 319°
2026-05-04 11:36 47.50004 13.37595 28106 ft 358 kts 319°
2026-05-04 11:36 47.51932 13.35281 27715 ft 355 kts 319°
2026-05-04 11:36 47.53836 13.32981 27311 ft 351 kts 319°
2026-05-04 11:36 47.55714 13.30703 26905 ft 347 kts 319°
2026-05-04 11:37 47.57554 13.28465 26497 ft 345 kts 319°
2026-05-04 11:37 47.59430 13.26187 26079 ft 343 kts 319°
2026-05-04 11:37 47.61247 13.23977 25655 ft 342 kts 318°
2026-05-04 11:37 47.63081 13.21742 25227 ft 340 kts 318°
2026-05-04 11:38 47.64908 13.19514 24800 ft 340 kts 318°
2026-05-04 11:38 47.66732 13.17292 24352 ft 339 kts 318°
2026-05-04 11:38 47.68561 13.15067 23915 ft 339 kts 318°
2026-05-04 11:38 47.70385 13.12843 23442 ft 340 kts 318°
2026-05-04 11:39 47.72210 13.10614 22957 ft 339 kts 318°
2026-05-04 11:39 47.74026 13.08393 22518 ft 337 kts 318°
2026-05-04 11:40 47.84741 12.95248 19993 ft 331 kts 317°
2026-05-04 11:41 47.86515 12.93068 19585 ft 330 kts 317°
2026-05-04 11:41 47.88285 12.90888 19169 ft 330 kts 317°
2026-05-04 11:41 47.90058 12.88699 18754 ft 331 kts 317°
2026-05-04 11:41 47.91830 12.86509 18346 ft 331 kts 317°
2026-05-04 11:42 47.93600 12.84320 17886 ft 331 kts 317°
2026-05-04 11:42 47.95292 12.82022 17485 ft 326 kts 308°
2026-05-04 11:42 47.96615 12.79319 17094 ft 321 kts 297°
2026-05-04 11:42 47.97748 12.76459 16703 ft 319 kts 297°
2026-05-04 11:43 47.98877 12.73616 16325 ft 318 kts 297°
2026-05-04 11:43 48.00004 12.70784 15942 ft 317 kts 297°
2026-05-04 11:43 48.01130 12.67950 15567 ft 316 kts 297°
2026-05-04 11:43 48.02250 12.65128 15198 ft 315 kts 297°
2026-05-04 11:44 48.03354 12.62339 14829 ft 315 kts 297°
2026-05-04 11:44 48.04466 12.59529 14462 ft 314 kts 297°
2026-05-04 11:44 48.05579 12.56721 14089 ft 314 kts 297°
2026-05-04 11:44 48.06694 12.53912 13707 ft 314 kts 297°
2026-05-04 11:45 48.07812 12.51108 13301 ft 313 kts 297°
2026-05-04 11:45 48.08928 12.48321 12922 ft 312 kts 298°
2026-05-04 11:45 48.10043 12.45538 12532 ft 311 kts 298°
2026-05-04 11:45 48.11152 12.42761 12142 ft 310 kts 298°
2026-05-04 11:46 48.12255 12.39999 11756 ft 309 kts 298°
2026-05-04 11:46 48.13366 12.37252 11361 ft 309 kts 301°
2026-05-04 11:46 48.14777 12.34821 10977 ft 311 kts 316°
2026-05-04 11:46 48.16555 12.33035 10783 ft 306 kts 332°
2026-05-04 11:47 48.18465 12.31667 10594 ft 302 kts 333°
2026-05-04 11:47 48.20356 12.30310 10403 ft 301 kts 332°
2026-05-04 11:47 48.22239 12.28952 10208 ft 300 kts 332°
2026-05-04 11:47 48.24117 12.27593 10026 ft 299 kts 332°
2026-05-04 11:48 48.25953 12.26134 9821 ft 297 kts 323°
2026-05-04 11:48 48.27415 12.23995 9631 ft 293 kts 303°
2026-05-04 11:48 48.28314 12.21335 9451 ft 288 kts 284°
2026-05-04 11:48 48.28604 12.18393 9271 ft 284 kts 266°
2026-05-04 11:49 48.28413 12.15449 9096 ft 283 kts 261°
2026-05-04 11:49 48.28191 12.12513 8923 ft 283 kts 262°
2026-05-04 11:49 48.27974 12.09580 8747 ft 282 kts 262°
2026-05-04 11:49 48.27761 12.06659 8579 ft 280 kts 262°
2026-05-04 11:50 48.27548 12.03755 8402 ft 279 kts 262°
2026-05-04 11:50 48.27334 12.00860 8226 ft 278 kts 262°
2026-05-04 11:50 48.27120 11.97973 8056 ft 278 kts 262°
2026-05-04 11:50 48.26904 11.95097 7879 ft 277 kts 262°
2026-05-04 11:51 48.26685 11.92224 7710 ft 277 kts 262°
2026-05-04 11:51 48.26465 11.89358 7542 ft 276 kts 261°
2026-05-04 11:51 48.26248 11.86493 7369 ft 275 kts 262°
2026-05-04 11:51 48.26033 11.83674 7203 ft 276 kts 261°
2026-05-04 11:52 48.25816 11.80818 7029 ft 274 kts 261°
2026-05-04 11:52 48.25598 11.77975 6861 ft 274 kts 262°
2026-05-04 11:52 48.25381 11.75150 6694 ft 269 kts 261°
2026-05-04 11:52 48.25173 11.72433 6575 ft 257 kts 262°
2026-05-04 11:53 48.24969 11.69795 6383 ft 251 kts 261°
2026-05-04 11:53 48.24766 11.67191 6212 ft 252 kts 262°
2026-05-04 11:53 48.24560 11.64584 6052 ft 251 kts 261°
2026-05-04 11:53 48.24353 11.61977 5861 ft 253 kts 261°
2026-05-04 11:55 48.23143 11.43927 5136 ft 244 kts 264°
2026-05-04 11:55 48.22967 11.41421 5026 ft 245 kts 264°
2026-05-04 11:56 48.22773 11.38870 5009 ft 246 kts 264°
2026-05-04 11:56 48.22576 11.36337 4999 ft 239 kts 263°
2026-05-04 11:56 48.22391 11.33921 5006 ft 229 kts 264°
2026-05-04 11:56 48.22590 11.31581 4996 ft 228 kts 297°
2026-05-04 11:57 48.23589 11.29805 5003 ft 224 kts 331°
2026-05-04 11:57 48.25030 11.28978 5016 ft 222 kts 352°
2026-05-04 11:57 48.26557 11.28870 5009 ft 219 kts
2026-05-04 11:57 48.28022 11.29460 5005 ft 218 kts 26°
2026-05-04 11:58 48.29290 11.30680 5011 ft 216 kts 43°
2026-05-04 11:58 48.30244 11.32405 5010 ft 221 kts 61°
2026-05-04 11:58 48.30825 11.34594 5008 ft 230 kts 79°
2026-05-04 11:58 48.31033 11.36959 5014 ft 233 kts 83°
2026-05-04 11:59 48.31229 11.39369 5000 ft 232 kts 83°
2026-05-04 11:59 48.31425 11.41775 5002 ft 232 kts 83°
2026-05-04 11:59 48.31618 11.44175 5004 ft 232 kts 83°
2026-05-04 11:59 48.31813 11.46587 5007 ft 232 kts 83°
2026-05-04 12:00 48.32006 11.49000 4832 ft 232 kts 83°
2026-05-04 12:00 48.32198 11.51397 4551 ft 230 kts 82°
2026-05-04 12:00 48.32387 11.53768 4253 ft 228 kts 82°
2026-05-04 12:00 48.32572 11.56090 3952 ft 214 kts 83°
2026-05-04 12:01 48.32740 11.58219 3715 ft 197 kts 82°
2026-05-04 12:01 48.32894 11.60164 3476 ft 179 kts 83°
2026-05-04 12:02 48.33606 11.69112 2279 ft 135 kts 82°
2026-05-04 12:03 48.33708 11.70524 2100 ft 136 kts 81°
2026-05-04 12:03 48.33816 11.71943 1930 ft 137 kts 82°
2026-05-04 12:03 48.33928 11.73342 1751 ft 134 kts 83°
2026-05-04 12:03 48.34029 11.74702 1574 ft 132 kts 82°
2026-05-04 12:04 48.34139 11.76030 1488 ft 117 kts 82°
2026-05-04 12:04 48.34220 11.77026 1475 ft 70 kts 83°
2026-05-04 12:04 48.34265 11.77609 1473 ft 50 kts 83°
2026-05-04 12:04 48.34303 11.78084 1485 ft 44 kts 81°
2026-05-04 12:05 48.34405 11.78406 1479 ft 23 kts 54°
2026-05-04 12:05 48.34468 11.78538 1482 ft 16 kts 54°
2026-05-04 12:05 48.34538 11.78681 1483 ft 18 kts 54°
2026-05-04 12:05 48.34616 11.78842 1478 ft 20 kts 56°
2026-05-04 12:06 48.34644 11.79053 1483 ft 22 kts 84°
2026-05-04 12:06 48.34662 11.79288 1485 ft 23 kts 83°
2026-05-04 12:06 48.34682 11.79537 1472 ft 23 kts 83°
2026-05-04 12:06 48.34721 11.79710 1479 ft 17 kts 26°
2026-05-04 12:07 48.34843 11.79696 1473 ft 19 kts 352°
2026-05-04 12:07 48.34981 11.79673 1485 ft 21 kts 353°
2026-05-04 12:07 48.35101 11.79712 1476 ft 18 kts 69°
2026-05-04 12:07 48.35118 11.79914 1483 ft 21 kts 83°
2026-05-04 12:08 48.35135 11.80134 1485 ft 22 kts 83°
2026-05-04 12:08 48.35154 11.80373 1485 ft 21 kts 83°
2026-05-04 12:08 48.35171 11.80589 1480 ft 18 kts 84°
2026-05-04 12:08 48.35181 11.80745 1485 ft 13 kts 84°
2026-05-04 12:09 48.35173 11.80830 1485 ft 6 kts 144°
2026-05-04 12:09 48.35136 11.80836 1477 ft 5 kts 175°
2026-05-04 12:09 48.35103 11.80842 1485 ft 5 kts 173°
2026-05-04 12:09 48.35083 11.80846 1479 ft 0 kts 172°